EHI
0 0 0 0 0 0 0 0 0 0 0 0 0 0 0 0 0 0 0 0 0 0 0 0 0 0 0 1 0 0 0 0 0 0 0 0 0 0 0 0 0 0 0
0 0 0 0 0 0 0 0 0 0 0 0 0 0 0 0 0 0 0 0 0 0 0 0 0 0 1 1 1 0 0 0 0 0 0 0 0 0 0 0 0 0 0
0 0 0 0 0 0 0 0 0 0 0 0 0 0 0 0 0 0 0 0 0 0 0 0 0 0 1 1 1 0 0 0 0 0 0 0 0 0 0 0 0 0 0
0 0 0 0 0 0 0 0 0 0 0 0 0 0 0 0 0 0 0 0 0 0 0 0 0 0 0 0 0 0 0 0 0 0 0 0 0 0 0 0 0 0 0
0 0 0 0 0 0 0 0 0 0 0 0 0 0 0 0 0 0 0 0 0 0 0 0 0 0 0 0 0 0 0 0 0 0 0 0 0 0 0 0 0 0 0
0 0 0 0 0 0 0 0 0 0 0 0 0 0 0 0 0 0 0 0 0 0 0 0 0 0 0 0 0 0 0 0 0 0 0 0 0 0 0 0 0 0 0
0 0 0 0 0 0 0 0 0 0 0 0 0 0 0 0 0 0 0 0 0 0 0 0 0 0 0 0 0 0 0 0 0 0 0 0 0 0 0 0 0 0 0
0 0 0 0 0 0 0 0 0 0 0 0 0 0 0 0 0 0 0 0 0 0 0 0 0 0 0 0 0 0 0 0 0 0 0 0 0 0 0 0 0 0 0
0 0 0 0 0 0 0 0 0 0 0 0 0 0 0 0 0 0 0 0 0 0 0 0 0 0 0 0 0 0 0 0 0 0 0 0 0 0 0 0 0 0 0
0 0 0 0 0 0 0 0 0 0 0 0 0 0 0 0 0 0 0 0 0 0 0 0 0 0 0 0 0 0 0 0 0 0 0 0 0 0 0 0 0 0 0
0 0 0 0 0 0 0 0 0 0 0 0 0 0 0 0 0 0 0 0 0 0 0 0 0 0 0 0 0 0 0 0 0 0 0 0 0 0 0 0 0 0 0
0 0 0 0 0 0 0 0 0 0 0 0 0 0 0 0 0 0 0 0 0 0 0 0 0 0 0 0 0 0 0 0 0 0 0 0 0 0 0 0 0 0 0
0 0 0 0 0 0 0 0 0 0 0 0 0 0 0 0 0 0 0 0 0 0 0 0 0 0 0 0 0 0 0 0 0 0 0 0 0 0 0 0 0 0 0
0 0 0 0 0 0 0 0 0 0 0 0 0 0 0 0 0 0 0 0 0 0 0 0 0 0 0 0 0 0 0 0 0 0 0 0 0 0 0 0 0 0 0
0 0 0 0 0 0 0 0 0 0 0 0 0 0 0 0 0 0 0 0 0 0 0 0 0 0 0 0 0 0 0 0 0 0 0 0 0 0 0 0 0 0 0
0 0 0 0 0 0 0 0 0 0 0 0 0 0 0 0 0 0 0 0 0 0 0 0 0 0 0 0 0 0 0 0 0 0 0 0 0 0 0 0 0 0 0
0 0 0 0 0 0 0 0 0 0 0 0 0 0 0 0 0 0 0 0 0 0 0 0 0 0 0 0 0 0 0 0 0 0 0 0 0 0 0 0 0 0 0
0 0 0 0 0 0 0 0 0 0 0 0 0 0 0 0 0 0 0 0 0 0 0 0 0 0 0 0 0 0 0 0 0 0 0 0 0 0 0 0 0 0 0
0 0 0 0 0 0 0 0 0 0 0 0 0 0 0 0 0 0 0 0 0 0 0 0 0 0 0 0 0 0 0 0 0 0 0 0 0 0 0 0 0 0 0
0 0 0 0 0 0 0 0 0 0 0 0 0 0 0 0 0 0 0 0 0 0 0 0 0 0 0 0 0 0 0 0 0 0 0 0 0 0 0 0 0 0 0
0 0 0 0 0 0 0 0 0 0 0 0 0 0 0 0 0 0 0 0 0 0 0 0 0 0 0 0 0 0 0 0 0 0 0 0 0 0 0 0 0 0 0
0 0 0 0 0 0 0 0 0 0 0 0 0 0 0 0 0 0 0 0 0 0 0 0 0 0 0 0 0 0 0 0 0 0 0 0 0 0 0 0 0 0 0
0 0 0 0 0 0 0 0 0 0 0 0 0 0 0 0 0 0 0 0 0 0 0 0 0 0 0 0 0 0 0 0 0 0 0 0 0 0 0 0 0 0 0
0 0 0 0 0 0 0 0 0 0 0 0 0 0 0 0 0 0 0 0 0 0 0 0 0 0 0 0 0 0 0 0 0 0 0 0 0 0 0 0 0 0 0
0 0 0 0 0 0 0 0 0 0 0 0 0 0 0 0 0 0 0 0 0 0 0 0 0 0 0 0 0 0 0 0 0 0 0 0 0 0 0 0 0 0 0
0 0 0 0 0 0 0 0 0 0 0 0 0 0 0 0 0 0 0 0 0 0 0 0 0 0 0 0 0 0 0 0 0 0 0 0 0 0 0 0 0 0 0
Wind_Speed
2 2 1 1 2 2 2 3 3 3 3 3 3 4 4 3 3 2 2 7 8 8 9 9 9 8 8 8 8 8 8 7 7 7 7 7 7 7 6 6 6 5 5
3 2 2 2 2 2 2 2 3 3 3 3 4 3 3 3 3 3 2 4 6 7 8 8 8 8 8 8 7 7 7 7 7 7 7 7 7 7 6 6 5 6 5
3 3 2 2 1 2 2 3 3 3 3 3 3 3 3 3 2 2 2 2 2 5 6 7 7 7 7 7 7 7 6 6 6 7 7 6 6 6 6 6 5 5 5
4 3 2 2 1 2 2 3 2 3 3 2 2 2 2 2 2 2 2 2 1 2 3 6 6 6 6 6 6 6 6 6 6 7 7 6 6 5 5 5 5 5 5
3 3 2 2 2 2 2 2 2 2 2 2 2 2 2 2 1 2 2 2 1 1 1 3 4 5 6 6 6 6 6 6 6 6 6 6 6 6 5 5 5 5 5
3 4 3 2 3 3 2 2 3 2 2 2 2 3 2 2 2 2 1 1 1 2 2 2 2 3 5 5 5 5 5 5 5 6 6 6 6 6 5 5 5 4 5
3 3 3 3 2 2 2 3 3 3 2 2 3 3 3 3 3 2 1 1 2 1 2 2 2 2 2 4 4 4 4 4 4 5 5 5 5 6 5 5 5 4 4
3 4 4 3 2 2 2 2 3 2 1 2 3 3 2 3 3 2 1 1 1 1 2 2 2 2 2 1 3 4 4 4 4 3 4 4 4 4 5 4 5 5 5
2 3 4 3 3 3 2 2 3 3 2 0 1 3 3 2 1 2 2 2 1 1 1 1 2 2 2 1 1 2 3 3 3 3 3 3 3 3 4 4 4 4 5
2 3 3 3 3 3 3 3 2 2 3 1 0 0 2 3 2 0 2 2 1 1 0 1 1 1 1 1 1 2 3 3 2 2 2 2 3 3 3 3 4 4 4
2 2 3 3 3 3 3 3 2 2 2 2 2 1 1 1 2 3 1 2 2 1 0 0 1 0 0 1 0 1 2 2 2 2 2 3 3 2 2 3 3 3 3
1 2 2 2 3 3 3 3 3 3 2 2 2 2 2 2 2 2 2 1 1 2 1 1 0 1 1 1 1 2 2 2 2 2 3 3 3 3 3 2 3 3 3
2 2 2 2 2 3 3 3 3 3 3 3 3 2 2 2 2 3 3 2 1 1 1 1 1 1 1 1 1 1 1 1 1 1 2 2 3 3 4 3 3 3 3
3 3 3 3 2 2 2 2 2 2 2 2 2 2 2 2 2 3 3 3 1 1 1 2 1 1 1 1 2 2 1 1 1 1 0 1 2 2 3 3 2 3 3
3 4 4 3 2 2 2 3 2 2 2 2 2 2 2 1 2 2 3 4 4 2 2 2 2 2 1 1 2 1 1 2 2 2 1 0 0 1 2 2 2 3 3
3 4 3 3 3 2 2 2 2 2 2 1 1 1 1 1 1 2 2 2 3 4 3 3 3 2 2 2 3 2 2 3 3 3 2 2 1 1 1 1 1 2 2
3 4 4 4 3 3 3 3 2 2 2 1 1 1 1 1 1 1 2 2 2 3 2 2 1 1 2 2 1 1 1 2 2 3 4 4 3 2 1 1 1 1 1
3 3 4 4 3 3 3 3 3 2 2 2 1 1 1 1 1 1 2 2 2 3 3 3 1 1 2 3 2 2 2 2 2 4 4 4 3 3 2 2 2 2 2
2 3 3 4 4 3 3 3 3 3 3 2 2 1 1 1 1 1 1 2 2 2 2 2 2 1 1 1 1 1 1 1 2 3 4 5 5 4 4 3 3 3 2
3 3 3 4 4 4 4 4 3 3 2 2 2 2 2 2 2 2 2 2 2 2 2 2 2 1 1 1 1 1 1 1 2 2 2 3 4 5 5 5 4 4 4
2 3 3 3 3 3 4 4 4 3 3 2 1 1 2 2 3 2 2 2 2 2 2 2 2 1 1 1 2 2 2 1 2 2 1 2 2 2 3 5 5 5 5
1 2 2 3 3 2 3 5 5 3 3 2 2 2 2 2 2 2 2 2 3 3 3 2 2 3 4 3 2 2 2 1 2 2 1 2 1 2 3 3 5 6 6
2 2 2 3 3 3 3 4 5 4 3 3 3 2 2 1 1 2 2 2 2 3 4 4 4 4 4 4 4 3 3 3 4 2 2 2 1 3 3 3 6 7 7
2 2 2 2 3 2 3 4 5 3 3 2 3 3 3 2 2 2 2 1 2 3 3 3 4 4 4 4 5 5 4 2 1 1 2 2 2 2 2 2 6 7 7
2 2 2 2 2 2 3 4 4 3 2 2 2 2 2 3 3 2 2 2 2 2 2 2 3 3 3 3 3 2 2 1 2 2 2 2 2 2 2 2 4 6 6
3 2 2 2 2 2 2 3 4 2 2 2 2 2 3 3 2 2 2 3 3 3 2 1 1 2 2 2 3 4 4 3 2 2 2 2 2 1 1 2 2 2 3
Wind_Direction
117 107 85 61 55 59 64 63 66 76 82 87 91 91 90 88 85 74 62 83 92 95 96 94 93 91 88 82 79 77 75 73 73 72 69 67 67 66 66 64 63 60 59
123 117 99 75 64 68 78 82 84 87 82 84 84 86 92 90 89 88 72 69 80 90 93 94 92 90 87 83 79 77 74 72 71 71 70 66 65 65 62 59 58 58 55
124 120 109 94 84 87 85 80 74 76 75 72 69 72 79 77 89 95 90 70 62 79 93 94 91 90 89 87 84 79 77 74 71 71 70 66 65 64 61 56 55 56 54
129 120 114 113 112 92 83 86 74 76 71 72 68 63 73 78 82 93 91 87 71 64 79 91 89 88 87 88 85 81 80 78 74 70 67 63 61 59 56 52 50 51 54
123 119 120 121 110 92 81 95 86 98 98 81 79 64 59 69 75 89 87 100 103 92 78 84 85 84 83 85 85 83 83 82 79 74 68 61 56 52 53 50 44 45 46
120 114 116 116 109 99 84 87 91 81 99 103 86 56 36 42 57 72 85 85 90 94 91 82 63 64 72 77 80 79 82 85 80 73 68 62 56 49 50 47 43 45 43
129 119 118 119 117 121 130 122 108 92 70 83 79 42 14 25 39 46 54 71 74 81 83 83 72 57 45 57 60 68 79 85 81 75 68 63 57 47 43 39 38 40 40
143 137 135 141 139 124 116 120 115 109 91 89 108 93 31 1 359 20 31 73 76 72 79 91 84 74 57 37 44 59 64 73 78 73 68 62 56 47 39 39 37 36 38
156 149 148 149 151 143 153 159 143 134 141 86 113 134 137 196 305 339 7 36 54 67 60 80 94 89 87 61 32 44 61 56 72 72 69 62 56 52 43 36 34 32 37
161 159 157 159 160 157 162 177 160 150 141 157 359 98 151 153 148 323 336 354 20 63 82 96 97 91 95 93 76 73 69 53 54 59 61 65 51 52 42 28 32 33 38
182 169 167 165 167 168 173 171 152 153 155 164 172 160 119 93 119 143 221 312 350 341 323 154 128 142 138 137 130 109 85 61 59 49 57 54 38 27 31 29 35 36 37
204 188 171 169 174 174 180 182 174 168 173 170 174 168 159 158 174 154 170 218 272 300 325 319 166 187 198 197 195 149 115 85 75 62 47 34 27 24 23 25 34 34 33
199 203 177 171 174 184 185 177 171 180 177 175 184 188 181 185 166 153 148 173 211 290 326 315 268 219 198 182 197 166 141 117 98 78 47 29 17 16 18 21 29 31 29
196 192 182 177 178 180 177 170 172 189 180 186 195 187 186 199 173 164 161 154 144 311 305 272 284 241 228 200 202 181 182 173 184 152 94 26 8 14 13 15 14 22 20
187 181 179 177 180 174 167 159 165 187 178 190 200 198 199 216 194 182 170 162 156 184 250 253 249 248 234 217 207 179 197 215 219 209 204 195 350 10 7 360 4 12 11
189 173 180 179 176 172 165 154 164 177 161 187 188 188 214 230 207 189 176 171 164 167 207 237 230 228 218 218 214 201 212 221 228 229 227 220 223 263 299 312 336 343 345
189 182 182 179 179 179 171 158 168 164 167 191 197 189 229 223 202 200 177 168 173 157 185 253 245 219 194 212 226 222 221 225 238 238 236 232 229 234 243 250 257 279 283
194 189 179 170 174 176 167 165 177 170 166 177 200 193 247 221 200 209 183 185 188 177 171 213 245 218 218 212 205 218 225 221 234 247 239 233 229 232 240 248 241 245 252
185 182 168 171 177 175 171 176 175 173 177 185 185 190 231 185 209 222 193 194 200 187 166 176 220 220 224 200 183 237 236 263 252 248 238 239 237 236 240 246 248 241 240
176 181 182 184 183 180 176 176 175 176 185 196 201 210 214 196 209 212 205 208 194 175 167 171 200 216 222 220 154 199 259 259 260 264 257 249 246 244 243 244 247 242 240
185 184 176 181 183 182 183 173 178 180 187 206 224 238 236 231 229 213 201 197 181 179 177 187 207 208 216 191 208 206 216 251 269 248 252 263 249 249 247 248 247 244 241
176 164 175 175 171 186 173 170 170 177 184 195 221 249 256 249 257 250 246 214 186 182 193 193 213 215 224 217 208 199 190 188 266 250 188 260 223 244 248 239 242 239 240
160 157 189 177 179 191 168 169 173 171 183 204 218 233 258 272 267 249 268 271 246 229 204 194 204 223 222 213 190 202 207 201 224 228 169 257 253 249 252 252 241 240 238
170 178 186 183 182 196 172 168 172 173 182 211 222 221 222 248 250 225 225 250 263 255 236 217 211 229 232 221 203 204 205 209 250 247 171 218 246 249 268 260 251 238 232
171 172 168 176 181 213 181 165 158 169 188 233 244 233 223 233 249 212 186 217 265 281 277 260 236 240 246 232 195 151 150 156 247 258 203 189 228 254 276 270 264 247 236
170 157 153 190 192 211 195 167 160 168 197 240 259 253 246 243 249 229 200 203 232 255 267 290 309 316 284 254 204 187 184 185 202 243 221 184 211 182 277 282 274 265 246